Location: Unspecified
(0.0000°N, 0.0000°E)
Time: 18:01:16
(UTC+00:00)

STARLINK 1053 - Pass Details

Date: 17 January 2020
Orbit: 548 x 551 km, 53.0° (Epoch: 17 January)

Event Time Altitude Azimuth Distance (km) Brightness Sun altitude
Rises 19:09:55 0° 305° (NW) 2,701 7.6 -14.0°
Reaches altitude 10° 19:12:26 10° 292° (WNW) 1,812 6.9 -14.6°
Maximum altitude 19:15:51 25° 236° (SW) 1,124 6.1 -15.4°
Drops below altitude 10° 19:19:17 10° 179° (S) 1,819 6.5 -16.2°
Sets 19:21:48 0° 166° (SSE) 2,715 7.3 -16.7°
